Flag Weather past 2 weeks in Rovaniemi, Finland

Now
25 °F

Ice fog.


Feels Like: 19 °F
Forecast: 22 / 30 °F
Wind: 5 mph from Southwest

Location: Rovaniemi Airport

Current Time: Nov 27, 2014 at 1:42:49 AM

Latest Report: Nov 27, 2014 at 1:20 AM


Visibility: 0 mi

Pressure: 30.15 "Hg

Humidity: 100%

Dew point: 25 °F

Location of RovaniemiLocation

Historic Weather in Rovaniemi — Graph

°F

Rovaniemi temperature yesterday

Maximum temperature yesterday: 32 °F (at 12:20 AM)
Minimum temperature yesterday: 25 °F (at 10:20 PM)
Average temperature yesterday: 29 °F

Past Weeks' High & Low Weather Summary

 TemperatureHumidityPressure
High32 °F (Nov 17, 11:20 AM)100% (Nov 12, 12:20 AM)30.54 "Hg (Nov 12, 12:20 AM)
Low5 °F (Nov 14, 1:20 AM)85% (Nov 14, 2:50 AM)29.83 "Hg (Nov 12, 12:20 AM)
Average24 °F98%30.29 "Hg
* Reported Nov 12 12:20 AM — Nov 27 12:20 AM, Rovaniemi, Weather by CustomWeather, © 2014

Note: Actual official high and low records may vary slightly from our data, if they occured in-between our weather recording intervals... More about our weather records

Advertising

Rovaniemi weather history for previous 24 hours

 ConditionsComfort  
Time TempWeatherWind HumidityBarometerVisibility
12:20 AM
Nov 27
25 °FIce fog.3 mph100%30.15 "Hg0 mi
11:50 PM
Nov 26
25 °FIce fog.2 mph100%30.15 "Hg0 mi
11:20 PM25 °FIce fog.3 mph100%30.15 "Hg0 mi
10:50 PM25 °FIce fog.5 mph100%30.15 "Hg0 mi
10:20 PM25 °FIce fog.5 mph100%30.15 "Hg0 mi
9:50 PM27 °FIce fog.5 mph100%30.15 "Hg0 mi
9:20 PM27 °FIce fog.6 mph100%30.12 "Hg0 mi
8:50 PM27 °FIce fog.5 mph100%30.12 "Hg0 mi
8:20 PM27 °FIce fog.5 mph100%30.12 "Hg0 mi
7:50 PM27 °FIce fog.2 mph100%30.12 "Hg0 mi
7:20 PM28 °FIce fog.3 mph100%30.12 "Hg0 mi
6:50 PM28 °FIce fog.5 mph100%30.12 "Hg0 mi
6:20 PM28 °FIce fog.5 mph100%30.12 "Hg0 mi
5:50 PM28 °FIce fog.5 mph100%30.12 "Hg0 mi
5:20 PM28 °FIce fog.3 mph100%30.12 "Hg0 mi
4:50 PM28 °FIce fog.3 mph100%30.09 "Hg0 mi
4:20 PM28 °FIce fog.5 mph100%30.09 "Hg0 mi
3:50 PM30 °FIce fog.5 mph100%30.09 "Hg0 mi
3:20 PM30 °FIce fog.3 mph100%30.09 "Hg0 mi
2:50 PM30 °FIce fog.5 mph100%30.09 "Hg0 mi
2:20 PM30 °FLight freezing rain. Ice fog.7 mph100%30.09 "Hg1 mi
1:50 PM30 °FIce fog.8 mph100%30.07 "Hg1 mi
1:20 PM30 °FIce fog.9 mph100%30.07 "Hg0 mi
12:50 PM30 °FIce fog.8 mph100%30.07 "Hg1 mi
12:20 PM30 °FLight freezing rain. Ice fog.5 mph100%30.07 "Hg0 mi
11:50 AM30 °FLight freezing rain. Ice fog.7 mph100%30.07 "Hg0 mi
11:20 AM30 °FLight freezing rain. Ice fog.7 mph100%30.07 "Hg0 mi
10:50 AM30 °FLight freezing rain. Ice fog.8 mph100%30.07 "Hg0 mi
10:20 AM30 °FLight freezing rain. Ice fog.7 mph100%30.04 "Hg0 mi
9:50 AM30 °FLight freezing rain. Ice fog.8 mph100%30.04 "Hg1 mi
9:20 AM30 °FLight freezing rain. Ice fog.7 mph100%30.04 "Hg0 mi
8:50 AM30 °FLight freezing rain. Ice fog.9 mph100%30.04 "Hg0 mi
8:20 AM30 °FLight freezing rain. Ice fog.8 mph100%30.01 "Hg0 mi
7:50 AM30 °FLight freezing rain. Ice fog.12 mph100%30.01 "Hg1 mi
7:20 AM30 °FLight freezing rain. Ice fog.10 mph100%30.01 "Hg1 mi
6:50 AM30 °FIce fog.12 mph100%30.01 "Hg1 mi
6:20 AM30 °FIce fog.13 mph100%30.01 "Hg1 mi
5:20 AM30 °FIce fog.8 mph100%30.01 "Hg0 mi
4:50 AM30 °FIce fog.14 mph100%30.01 "Hg0 mi
4:20 AM32 °FIce fog.10 mph100%30.01 "Hg0 mi
3:50 AM32 °FIce fog.10 mph100%30.01 "Hg0 mi
3:20 AM32 °FFog.14 mph100%30.01 "Hg0 mi
2:50 AM32 °FDense fog.16 mph100%30.01 "Hg1 mi
2:20 AM32 °FFog.10 mph100%30.01 "Hg0 mi
1:50 AM32 °FFog.8 mph100%30.01 "Hg0 mi
1:20 AM32 °FFog.8 mph100%30.01 "Hg0 mi
Weather by CustomWeather, © 2014

See weather overviewHow to use our weather pages